Preview of NWS' New Version of Forecast
This preview is not operational and should not be used for support decisions.

Regional Weather Roundup (RWR)

Issued by Gray - Portland, ME (GYX)

                            
000
ASUS41 KGYX 250605
RWRGYX
WEATHER ROUNDUP FOR MAINE AND NEW HAMPSHIRE
NATIONAL WEATHER SERVICE GRAY ME
200 AM EDT SUN AUG 25 2019

MEZ002-005-006-010-012-015-018-020-021-024-026-027-029-250700-
MAINE
  
CITY           SKY/WX    TMP DP  RH WIND       PRES   REMARKS
PORTLAND       FAIR      61  54  77 E7        30.33F                  
6HR MIN TEMP:  61; 6HR MAX TEMP:  68;                                

SANFORD        CLOUDY    60  58  92 NE5       30.33S                  
BAR HARBOR     FAIR      50  48  93 CALM      30.35F                  
WISCASSET      FAIR      54  52  93 CALM      30.35S                  
6HR MIN TEMP:  54; 6HR MAX TEMP:  65;                                

ROCKLAND       FAIR      55  52  89 NE5       30.34S                  
FRYEBURG       CLOUDY    53  52  96 CALM      30.35S                  
6HR MIN TEMP:  52; 6HR MAX TEMP:  64;                                

LEWISTONAUBURN FAIR      54  54 100 CALM      30.35R                  
AUGUSTA        FAIR      57  54  89 NE3       30.35S                  
6HR MIN TEMP:  56; 6HR MAX TEMP:  64;                                

WATERVILLE     FAIR      54  53  97 CALM      30.33S                  
BANGOR         FAIR      53  52  96 CALM      30.36R                  
6HR MIN TEMP:  50; 6HR MAX TEMP:  64;                                

GREENVILLE       N/A     53  46  77 CALM      30.35R                  
6HR MIN TEMP:  51; 6HR MAX TEMP:  60;                                

MILLINOCKET    FAIR      50  47  89 CALM      30.38S                  
6HR MIN TEMP:  50; 6HR MAX TEMP:  61;                                

HOULTON        FAIR      48  46  93 CALM      30.36S                  
6HR MIN TEMP:  47; 6HR MAX TEMP:  61;                                

PRESQUE ISLE   FAIR      45  44  97 CALM      30.38S                  
6HR MIN TEMP:  45; 6HR MAX TEMP:  54;                                

FRENCHVILLE    FAIR      49  42  77 CALM      30.36S                  
6HR MIN TEMP:  48; 6HR MAX TEMP:  57;                                

CARIBOU        FAIR      50  45  83 CALM      30.36S                  
6HR MIN TEMP:  50; 6HR MAX TEMP:  64;                                

$$

NHZ002-005-008-009-011-012-014-250700-
NEW HAMPSHIRE
  
CITY           SKY/WX    TMP DP  RH WIND       PRES   REMARKS
PORTSMOUTH     MOCLDY    62  57  82 N3        30.30S                  
ROCHESTER      CLOUDY    59  55  87 NW3       30.32S                  
6HR MIN TEMP:  56; 6HR MAX TEMP:  65;                                

NASHUA         FAIR      57  57 100 W3        30.32S                  
MANCHESTER     FAIR      60  56  86 NE3       30.30S                  
6HR MIN TEMP:  60; 6HR MAX TEMP:  67;                                

CONCORD        CLOUDY    57  55  93 N3        30.32F                  
6HR MIN TEMP:  56; 6HR MAX TEMP:  65;                                

LACONIA        CLOUDY    63  55  75 E5        30.33F                  
PLYMOUTH       FOG       54  53  95 CALM      30.33F VSB 3/4          
BERLIN         NOT AVBL                                               
WHITEFIELD     FAIR      45  43  93 CALM      30.34F                  
6HR MIN TEMP:  45; 6HR MAX TEMP:  60;                                

JAFFREY        FAIR      56  53  90 CALM      30.33S                  
6HR MIN TEMP:  56; 6HR MAX TEMP:  63;                                

KEENE          FAIR      54  54 100 CALM      30.32S                  
LEBANON        CLOUDY    61  55  81 CALM      30.32S                  
6HR MIN TEMP:  61; 6HR MAX TEMP:  66;                                

MT WASHINGTON  FOG       39  39 100 E8          N/A  VSB 1/8          
6HR MIN TEMP:  38; 6HR MAX TEMP:  42;                                

$$

VTZ005-007-008-250700-
VERMONT
  
CITY           SKY/WX    TMP DP  RH WIND       PRES   REMARKS
ST JOHNSBURY     N/A     52  51  97 MISG      30.33S                  
MONTPELIER     CLOUDY    52  51  97 CALM      30.37F                  
BURLINGTON     FAIR      56  53  90 CALM      30.31F                  
$$

MAZ007-012-024-CTZ003-RIZ002-NYZ038-NYZ072-250700-
SOUTHERN NEW ENGLAND AND NY
  
CITY           SKY/WX    TMP DP  RH WIND       PRES   REMARKS
BOSTON         FAIR      64  56  75 N7        30.29F                  
WORCESTER      FAIR      57  55  93 N6        30.31S                  
NANTUCKET      FAIR      62  58  86 NE12      30.23F                  
PROVIDENCE     FAIR      60  57  89 N8        30.28F                  
HARTFORD       MOCLDY    61  54  77 N6        30.29F                  
ALBANY         CLOUDY    63  54  72 N7        30.29F                  
NEW YORK CITY  MOCLDY    68  56  65 E12       30.24F                  
$$

ANZ081-ANZ082-ANZ150-NHZ014-MEZ023>029-250700-
COASTAL MARINE OBSERVATIONS
  
STATION/POSITION TIME  TEMP    WIND        PRES    WAVE
                       AIR SEA DIR/SP/G            HT/PER
                 (UTC) (F)     (DEG/KT/KT) (MB)    (FT/S)
MATINICUS ROCK   0550   58                 1026.4F
ISLE OF SHOALS   0500   65      60/ 14/ 15 1025.6F
JEFFREYS LEDGE   0538      68                N/A     3/ 4
CASHES LEDGE BUO 0450   62 63   50/ 14/ 16 1026.4    2/ 3
GEORGES BANK BUO 0540   65 66   20/ 17/ 23 1021.9F
$$

.............KEY..............
   WCI - WIND CHILL
   TC  - TEMPERATURE IN CELSIUS
   VSB - VISIBILITY IN MILES
   HX  - HEAT INDEX
   FAIR- INDICATES FEW OR NO CLOUDS BELOW 12,000 FT, WITH NO 
         SIGNIFICANT WEATHER AND/OR OBSTRUCTIONS TO VISIBILITY.